FENGYUN 1C DEB, 31028

Orbit data source: Space-Track

FENGYUN 1C DEB, 31028 is space debris in SSO originally from a launch on Mon, 10 May 1999 UTC launched from the Taiyaun Space Center, China (TSC). Fengyun 1C debris stems from the Chinese weather satellite Fengyun-1C, which was intentionally destroyed by a Chinese anti-satellite missile in 2007. This event dramatically increased the amount of space debris, with thousands of trackable fragments posing hazards to satellites and human spaceflight. The Fengyun 1C debris cloud has become a focal point in discussions about space sustainability and the need for international regulations to prevent the creation of new debris.

Loading next visibility...
Identifier
31028, 1999-025BDW
Orbit
SSO
Country
Flag of CNCN / PRC
Related business
Manufacturer
Unknown
Mission
Spacecraft
Bus & Motor
Unknown
Mass
Unknown
Launch date (UTC)
1999-05-10 (27 years ago)
Launch vehicle
Unknown
Launch site
Taiyaun Space Center, China (TSC)
Object type
Payload
Rocket body
Debris
Shape & HBR
Unknown shape, 0.1 m
Radar Cross Section
Small (<0.1 m²)

Expand to show TLE details & history
Last TLE update: 6 days ago

TLE from 6 days ago
0 FENGYUN 1C DEB
1 31028U 99025BDW 26250.01133131  .00000056  00000-0  72193-4 0  9994
2 31028  98.7122 169.6697 0164030 279.8219  78.4455 13.89240813657281
Epoch: 2026-09-07T00:16Z
TLE epoch observation values (Epoch: 2026-09-07T00:16:19.025Z)
Latitude
0.00003°
Longitude
179.4922°
Altitude
912.043 km
Speed
7.407 km/s
True Right ascension
11h 18m 40s
True Declination
0° 00' 00"
Sunlit
Object was in daylight at epoch
Visualization orbit readout
Latitude
Unknown
Longitude
Unknown
Altitude
Unknown
Speed
Unknown
Apparent Right ascension
Unknown
Apparent Declination
Unknown
Sunlit
N/A
Visualization observer readout
Local Sidereal Time
09:33:06
Azimuth
Unknown
Elevation
Unknown
Doppler factor
Unknown
Orbital elements
Apogee altitude
1,048.342 km
Perigee altitude
808.641 km
Semi-major axis
7,306.628 km
Eccentricity
0.0164
Inclination
98.7122°
RAAN
169.6697°
Arg. of periapsis
279.8219°
True anomaly
80.29433°
Mean anomaly
78.4455°
Eccentric anomaly
79.36919°
Mean motion
3.4751 °/min
Orbital period
103.59 mins
BSTAR
0.000072193
Loading maneuver chart data...
Computing Atmospheric mass density...
Loading historical data...
Loading historical data...
Loading historical data...
Loading historical data...
Loading historical data...
Loading historical data...
Loading historical data...

Documentation

Showing up to 5 results
|